Regional Weather Roundup
Issued by NWS

Current Version | Previous Version | Text Only | Print | Product List | Glossary On
Versions: 1 2 3 4 5 6 7 8 9 10 11 12 13 14 15 16 17 18 19 20 21 22 23 24 25 26 27 28 29 30 31 32 33 34 35 36 37 38 39 40 41 42 43 44 45 46 47 48 49 50
000
ASUS43 KOAX 010610
RWRNE

WEATHER ROUNDUP FOR NEBRASKA
NATIONAL WEATHER SERVICE OMAHA NE
1200 AM CST MON MAR 01 2021

NOTES: SATELLITE DATA IS BEING USED TO AUGMENT CLOUD COVER ABOVE
       12000 FEET.
       "FAIR" INDICATES FEW OR NO CLOUDS BELOW 12,000 FEET WITH NO
       SIGNIFICANT WEATHER AND/OR OBSTRUCTIONS TO VISIBILITY.


NEZ001>004-019>022-054>056-010700-
NEBRASKA PANHANDLE

CITY           SKY/WX    TMP DP  RH WIND       PRES   REMARKS
SCOTTSBLUFF    CLEAR     25  13  60 W6        30.16R WCI  18
6HR MIN TEMP:  25; 6HR MAX TEMP:  38;

ALLIANCE       CLEAR     22  16  78 W9        30.12S WCI  12
6HR MIN TEMP:  16; 6HR MAX TEMP:  37;

CHADRON        CLEAR     29  15  56 W17       30.14R WCI  17
6HR MIN TEMP:  25; 6HR MAX TEMP:  37;

GORDON         CLEAR     28  15  58 W9        30.10R WCI  20
6HR MIN TEMP:  28; 6HR MAX TEMP:  36;

KIMBALL        CLEAR     25   8  48 W13       30.16R WCI  13
SIDNEY         CLEAR     23  11  60 W13       30.16R WCI  11
6HR MIN TEMP:  21; 6HR MAX TEMP:  39;

$$

NEZ057>060-069>072-079>082-010700-
SOUTHWEST NEBRASKA

CITY           SKY/WX    TMP DP  RH WIND       PRES   REMARKS
NORTH PLATTE   CLEAR     26  16  65 NW7       30.17R WCI  18
6HR MIN TEMP:  23; 6HR MAX TEMP:  40;

IMPERIAL       CLEAR     27  13  55 W8        30.19R WCI  19
6HR MIN TEMP:  24; 6HR MAX TEMP:  41;

LEXINGTON      CLEAR     30  22  73 SW7       30.18R WCI  23
MCCOOK         CLEAR     24  16  71 W7        30.20R WCI  16
6HR MIN TEMP:  24; 6HR MAX TEMP:  40;

OGALLALA       CLEAR     27  16  63 SW6       30.17S WCI  20
$$

NEZ005>010-023>029-035>040-094-010700-
NORTH CENTRAL NEBRASKA

CITY           SKY/WX    TMP DP  RH WIND       PRES   REMARKS
VALENTINE      CLEAR     26  17  68 W8        30.10R WCI  18
6HR MIN TEMP:  23; 6HR MAX TEMP:  37;

AINSWORTH      CLEAR     28  18  64 W10       30.09R WCI  19
BROKEN BOW     CLEAR     28  18  66 W6        30.14R WCI  22
6HR MIN TEMP:  21; 6HR MAX TEMP:  38;

O`NEILL        CLEAR     25  19  79 SW7       30.09F WCI  17
ORD            CLEAR     27  20  75 SW9       30.12S WCI  18
6HR MIN TEMP:  22; 6HR MAX TEMP:  36;

THEDFORD       CLEAR     31  16  53 W12       30.12R WCI  22
$$

NEZ041-046>049-061>064-073>077-083>087-010700-
SOUTH CENTRAL NEBRASKA

CITY           SKY/WX    TMP DP  RH WIND       PRES   REMARKS
GRAND ISLAND   CLEAR     29  22  75 SW9       30.17S WCI  20
6HR MIN TEMP:  26; 6HR MAX TEMP:  38;

AURORA         CLEAR     29  25  84 SW9       30.17S WCI  20
HASTINGS       CLEAR     30  23  75 SW8       30.18S WCI  22
6HR MIN TEMP:  28; 6HR MAX TEMP:  36;

HEBRON         CLEAR     27  24  89 CALM      30.21F
HOLDREGE       CLEAR     29  23  77 SW8       30.19R WCI  22
KEARNEY        CLEAR     30  24  78 SW10      30.18R WCI  21
YORK             N/A    N/A N/A N/A MISG        N/A
$$

NEZ011>018-030>034-042>045-010700-
NORTHEAST NEBRASKA

CITY           SKY/WX    TMP DP  RH WIND       PRES   REMARKS
NORFOLK        CLEAR     27  18  69 S5        30.13R WCI  22
6HR MIN TEMP:  21; 6HR MAX TEMP:  33;

ALBION         CLEAR     28  22  77 SE5       30.14R WCI  23
BLAIR          CLEAR     25  22  89 S3        30.17S
COLUMBUS       CLEAR     27  22  81 S7        30.17F WCI  19
FREMONT        CLEAR     28  23  81 S5        30.18S WCI  23
TEKAMAH        CLEAR     28  22  78 S6        30.18S WCI  22
6HR MIN TEMP:  28; 6HR MAX TEMP:  34;

WAYNE          CLEAR     25  20  83 SW8       30.13R WCI  16
$$

NEZ050>053-065>068-078-088>093-010700-
SOUTHEAST NEBRASKA

CITY           SKY/WX    TMP DP  RH WIND       PRES   REMARKS
LINCOLN        CLEAR     27  21  78 CALM      30.21F
6HR MIN TEMP:  24; 6HR MAX TEMP:  38;

OMAHA EPPLEY   CLEAR     25  21  85 CALM      30.20R
6HR MIN TEMP:  25; 6HR MAX TEMP:  34;

BEATRICE       CLEAR     24  22  94 CALM      30.22F
FALLS CITY     CLEAR     27  24  89 W5        30.22R WCI  22
6HR MIN TEMP:  24; 6HR MAX TEMP:  36;

NEBRASKA CITY  CLEAR     28  24  87 SW6       30.20F WCI  21
PLATTSMOUTH    CLEAR     28  22  78 SW5       30.20R WCI  23
$$

NEZ044-045-051>053-067-010700-
OMAHA AREA

CITY           SKY/WX    TMP DP  RH WIND       PRES   REMARKS
OMAHA EPPLEY   CLEAR     25  21  85 CALM      30.20R
6HR MIN TEMP:  25; 6HR MAX TEMP:  34;

BLAIR          CLEAR     25  22  89 S3        30.17S
FREMONT        CLEAR     28  23  81 S5        30.18S WCI  23
MILLARD        CLEAR     25  21  85 CALM      30.20R
OFFUTT AFB     CLEAR     25  20  83 CALM      30.19S
PLATTSMOUTH    CLEAR     28  22  78 SW5       30.20R WCI  23
WAHOO          PTCLDY    27  24  90 S3        30.19S
$$




USA.gov is the U.S. government's official web portal to all federal, state and local government web resources and services.